FLOCK 4V 18

导读

FLOCK 4V 18是美国Planet Labs公司Flock 4V星座中的一颗立方体遥感小卫星,于北京时间2020年9月3日搭载运载火箭发射升空。该卫星属于地球观测卫星,主要用于获取高分辨率光学遥感影像,可服务于农业监测、城市测绘、灾害评估、自然资源管理等领域,是Planet公司全球对地观测组网的重要组成部分,延续了该星座高频次覆盖全球地表的观测能力,为商业遥感应用提供持续数据支撑。

Basic Information
目录编号:
46597
目录名称:
FLOCK 4V 18
国际标识:
2020-061BG
轨道中心:
EARTH
卫星名称:
FLOCK 4V 18
卫星全名:
--
卫星状态:
已陨落 最后检测时间 2024-03-28
发射日期:
2020-09-03 UTC
国别 :
美国 (US)
星等 :
--
Orbit Information
数据来源 国际轨道数据
星历时间: 2024-03-19T20:46:26+0800
轨道信息已过期846天
半长轴: 6596.323km
偏心率: 0.0009956
轨道倾角: 97.323°
近地点辐角 270.268°
升交点赤经 164.364°
平近点角 89.747°
近地点: 211.62km
远地点: 224.756km
周期: 88.861分钟
每日圈数: 16.205033
Detailed Information
使用方式:
暂无